EWG473 EGKK-EDDK

Flight info

Callsign EWG473
Flight time 0h 54m
Altitude 33000
Route ODVIK Y311 DVR UL9 KONAN UL607 SPI T857 DENOV T861 ERUKI T856 DEPOK
Aircraft A319/M-SDE3FGHIRWY/LB1

Departure

Time 2026-04-24 13:34
Airport London Gatwick Airport (EGKK)

Arrival

Time 2026-04-24 14:29
Airport Cologne Bonn Airport (EDDK)
Time Latitude Longitude Altitude Speed Heading
2026-04-24 12:51 51.15857 -0.17436 205 ft 0 kts 348°
2026-04-24 13:20 51.15836 -0.17429 216 ft 4 kts 345°
2026-04-24 13:21 51.15810 -0.17416 210 ft 4 kts 337°
2026-04-24 13:21 51.15788 -0.17395 212 ft 4 kts 307°
2026-04-24 13:21 51.15781 -0.17371 212 ft 0 kts 257°
2026-04-24 13:25 51.15781 -0.17377 205 ft 1 kts 257°
2026-04-24 13:25 51.15776 -0.17414 212 ft 7 kts 259°
2026-04-24 13:25 51.15764 -0.17508 205 ft 10 kts 256°
2026-04-24 13:25 51.15746 -0.17629 210 ft 13 kts 258°
2026-04-24 13:26 51.15724 -0.17782 205 ft 16 kts 257°
2026-04-24 13:26 51.15699 -0.17965 208 ft 18 kts 258°
2026-04-24 13:26 51.15672 -0.18164 210 ft 19 kts 257°
2026-04-24 13:26 51.15646 -0.18334 209 ft 12 kts 242°
2026-04-24 13:27 51.15571 -0.18343 210 ft 12 kts 167°
2026-04-24 13:27 51.15480 -0.18312 208 ft 15 kts 168°
2026-04-24 13:27 51.15372 -0.18275 205 ft 17 kts 168°
2026-04-24 13:27 51.15253 -0.18233 205 ft 15 kts 167°
2026-04-24 13:28 51.15188 -0.18307 205 ft 15 kts 266°
2026-04-24 13:28 51.15163 -0.18480 205 ft 17 kts 257°
2026-04-24 13:28 51.15139 -0.18673 209 ft 19 kts 258°
2026-04-24 13:28 51.15111 -0.18886 209 ft 20 kts 258°
2026-04-24 13:29 51.15081 -0.19105 209 ft 20 kts 257°
2026-04-24 13:29 51.15052 -0.19312 209 ft 19 kts 258°
2026-04-24 13:29 51.15024 -0.19507 210 ft 18 kts 259°
2026-04-24 13:29 51.15000 -0.19694 212 ft 17 kts 256°
2026-04-24 13:30 51.14974 -0.19875 205 ft 17 kts 258°
2026-04-24 13:30 51.14947 -0.20070 205 ft 20 kts 257°
2026-04-24 13:30 51.14915 -0.20307 205 ft 24 kts 258°
2026-04-24 13:30 51.14885 -0.20517 205 ft 12 kts 257°
2026-04-24 13:31 51.14868 -0.20625 208 ft 8 kts 240°
2026-04-24 13:31 51.14813 -0.20663 215 ft 10 kts 207°
2026-04-24 13:31 51.14742 -0.20723 205 ft 12 kts 194°
2026-04-24 13:31 51.14702 -0.20718 206 ft 0 kts 167°
2026-04-24 13:33 51.14695 -0.20716 210 ft 3 kts 167°
2026-04-24 13:33 51.14669 -0.20706 207 ft 5 kts 167°
2026-04-24 13:33 51.14613 -0.20686 209 ft 11 kts 167°
2026-04-24 13:33 51.14601 -0.20585 214 ft 18 kts 78°
2026-04-24 13:34 51.14669 -0.20100 211 ft 77 kts 77°
2026-04-24 13:34 51.14827 -0.18946 210 ft 135 kts 78°
2026-04-24 13:34 51.15037 -0.17455 720 ft 137 kts 79°
2026-04-24 13:34 51.15244 -0.15956 1389 ft 138 kts 79°
2026-04-24 13:35 51.15465 -0.14337 1786 ft 161 kts 77°
2026-04-24 13:35 51.15709 -0.12515 2198 ft 181 kts 78°
2026-04-24 13:35 51.15977 -0.10448 2597 ft 201 kts 79°
2026-04-24 13:35 51.16273 -0.08101 2978 ft 231 kts 78°
2026-04-24 13:36 51.16618 -0.05502 3738 ft 246 kts 78°
2026-04-24 13:36 51.16878 -0.02768 4472 ft 255 kts 88°
2026-04-24 13:36 51.16889 0.00055 4851 ft 255 kts 91°
2026-04-24 13:36 51.16841 0.02894 5193 ft 258 kts 92°
2026-04-24 13:37 51.16772 0.05740 5438 ft 256 kts 92°
2026-04-24 13:37 51.16702 0.08575 5682 ft 257 kts 92°
2026-04-24 13:37 51.16634 0.11435 5902 ft 260 kts 92°
2026-04-24 13:37 51.16572 0.14328 5973 ft 261 kts 92°
2026-04-24 13:38 51.16530 0.17216 5982 ft 259 kts 91°
2026-04-24 13:38 51.16527 0.20082 5984 ft 260 kts 91°
2026-04-24 13:38 51.16537 0.22961 5985 ft 261 kts 90°
2026-04-24 13:38 51.16551 0.25859 5982 ft 261 kts 90°
2026-04-24 13:39 51.16566 0.28749 5983 ft 259 kts 90°
2026-04-24 13:39 51.16579 0.31626 5982 ft 261 kts 90°
2026-04-24 13:39 51.16586 0.34522 5984 ft 262 kts 90°
2026-04-24 13:39 51.16589 0.37421 5982 ft 261 kts 91°
2026-04-24 13:40 51.16589 0.40296 5981 ft 259 kts 90°
2026-04-24 13:40 51.16588 0.43172 5982 ft 260 kts 90°
2026-04-24 13:40 51.16588 0.46073 5984 ft 262 kts 90°
2026-04-24 13:40 51.16590 0.48972 6085 ft 265 kts 90°
2026-04-24 13:41 51.16591 0.51899 7062 ft 266 kts 90°
2026-04-24 13:41 51.16589 0.54870 7797 ft 268 kts 90°
2026-04-24 13:41 51.16584 0.57824 8541 ft 271 kts 91°
2026-04-24 13:41 51.16580 0.60841 9317 ft 273 kts 91°
2026-04-24 13:42 51.16575 0.63879 10112 ft 277 kts 91°
2026-04-24 13:42 51.16567 0.67017 10610 ft 294 kts 91°
2026-04-24 13:42 51.16559 0.70397 11029 ft 314 kts 91°
2026-04-24 13:42 51.16553 0.73913 11747 ft 321 kts 91°
2026-04-24 13:43 51.16547 0.77507 12496 ft 328 kts 91°
2026-04-24 13:43 51.16540 0.81178 13258 ft 334 kts 91°
2026-04-24 13:43 51.16532 0.84907 14027 ft 340 kts 92°
2026-04-24 13:43 51.16518 0.88707 14708 ft 345 kts 92°
2026-04-24 13:44 51.16504 0.92561 15395 ft 350 kts 92°
2026-04-24 13:44 51.16488 0.96466 16077 ft 355 kts 91°
2026-04-24 13:44 51.16471 1.00427 16777 ft 360 kts 92°
2026-04-24 13:44 51.16451 1.04435 17460 ft 364 kts 92°
2026-04-24 13:45 51.16429 1.08498 18122 ft 370 kts 92°
2026-04-24 13:45 51.16406 1.12615 18793 ft 374 kts 92°
2026-04-24 13:45 51.16382 1.16777 19382 ft 378 kts 92°
2026-04-24 13:45 51.16358 1.21001 19934 ft 384 kts 92°
2026-04-24 13:46 51.16331 1.25279 20519 ft 389 kts 92°
2026-04-24 13:46 51.16301 1.29613 21102 ft 393 kts 92°
2026-04-24 13:46 51.16269 1.33997 21665 ft 398 kts 92°
2026-04-24 13:46 51.16204 1.38439 22216 ft 403 kts 94°
2026-04-24 13:47 51.16046 1.42921 22754 ft 408 kts 96°
2026-04-24 13:47 51.15822 1.47445 23304 ft 412 kts 96°
2026-04-24 13:47 51.15565 1.52011 23845 ft 416 kts 97°
2026-04-24 13:47 51.15299 1.56629 24308 ft 421 kts 97°
2026-04-24 13:48 51.15042 1.61226 24764 ft 424 kts 96°
2026-04-24 13:48 51.14791 1.65928 25234 ft 427 kts 96°
2026-04-24 13:48 51.14551 1.70659 25699 ft 430 kts 96°
2026-04-24 13:48 51.14318 1.75432 26157 ft 433 kts 96°
2026-04-24 13:49 51.14084 1.80233 26610 ft 436 kts 96°
2026-04-24 13:49 51.13843 1.85062 27056 ft 439 kts 96°
2026-04-24 13:49 51.13596 1.89930 27493 ft 442 kts 96°
2026-04-24 13:49 51.13345 1.94816 27984 ft 444 kts 96°
2026-04-24 13:50 51.13089 1.99726 28452 ft 446 kts 96°
2026-04-24 13:50 51.12828 2.04655 28901 ft 449 kts 96°
2026-04-24 13:50 51.12565 2.09619 29342 ft 451 kts 96°
2026-04-24 13:50 51.12298 2.14617 29776 ft 454 kts 96°
2026-04-24 13:51 51.12028 2.19644 30206 ft 457 kts 96°
2026-04-24 13:51 51.11751 2.24705 30587 ft 460 kts 96°
2026-04-24 13:51 51.11470 2.29794 30934 ft 463 kts 96°
2026-04-24 13:51 51.11188 2.34914 31281 ft 465 kts 96°
2026-04-24 13:52 51.10902 2.40051 31632 ft 467 kts 97°
2026-04-24 13:52 51.10611 2.45204 31986 ft 469 kts 97°
2026-04-24 13:52 51.10316 2.50375 32407 ft 469 kts 97°
2026-04-24 13:52 51.10026 2.55463 32886 ft 467 kts 97°
2026-04-24 13:53 51.09731 2.60611 33231 ft 467 kts 97°
2026-04-24 13:53 51.09336 2.65707 33304 ft 458 kts 103°
2026-04-24 13:53 51.08539 2.70520 33307 ft 443 kts 108°
2026-04-24 13:53 51.07689 2.75183 33306 ft 435 kts 109°
2026-04-24 13:54 51.05998 2.84377 33319 ft 432 kts 109°
2026-04-24 13:54 51.04324 2.93511 33323 ft 430 kts 109°
2026-04-24 13:55 51.02662 3.02624 33315 ft 429 kts 109°
2026-04-24 13:55 51.00986 3.11731 33305 ft 429 kts 109°
2026-04-24 13:56 50.99299 3.20818 33300 ft 429 kts 109°
2026-04-24 13:56 50.97623 3.29843 33289 ft 429 kts 109°
2026-04-24 13:57 50.95937 3.38923 33294 ft 429 kts 109°
2026-04-24 13:57 50.94241 3.47979 33293 ft 428 kts 109°
2026-04-24 13:58 50.92533 3.57009 33293 ft 427 kts 109°
2026-04-24 13:58 50.90813 3.66030 33290 ft 427 kts 109°
2026-04-24 13:59 50.89083 3.75033 33287 ft 427 kts 110°
2026-04-24 13:59 50.87342 3.84023 33275 ft 427 kts 110°
2026-04-24 14:00 50.85597 3.93011 33274 ft 427 kts 110°
2026-04-24 14:00 50.83844 4.02012 33274 ft 428 kts 110°
2026-04-24 14:01 50.82097 4.10933 33273 ft 427 kts 110°
2026-04-24 14:01 50.80323 4.19916 33273 ft 427 kts 110°
2026-04-24 14:02 50.78551 4.28888 33269 ft 427 kts 111°
2026-04-24 14:02 50.76768 4.37834 33275 ft 427 kts 111°
2026-04-24 14:03 50.74978 4.46781 33278 ft 426 kts 111°
2026-04-24 14:03 50.74086 4.51232 32956 ft 424 kts 111°
2026-04-24 14:03 50.73192 4.55678 32361 ft 425 kts 111°
2026-04-24 14:04 50.72299 4.60116 31894 ft 423 kts 111°
2026-04-24 14:04 50.71421 4.64531 31446 ft 420 kts 111°
2026-04-24 14:04 50.70566 4.68934 30995 ft 418 kts 111°
2026-04-24 14:04 50.69735 4.73258 30555 ft 416 kts 111°
2026-04-24 14:05 50.68900 4.77621 30100 ft 414 kts 111°
2026-04-24 14:05 50.68069 4.81950 29630 ft 411 kts 111°
2026-04-24 14:05 50.67236 4.86247 29182 ft 409 kts 111°
2026-04-24 14:05 50.66404 4.90515 28760 ft 406 kts 111°
2026-04-24 14:06 50.65568 4.94750 28340 ft 403 kts 111°
2026-04-24 14:06 50.64717 4.98945 27941 ft 400 kts 112°
2026-04-24 14:06 50.63859 5.03099 27538 ft 398 kts 112°
2026-04-24 14:06 50.63000 5.07224 27128 ft 395 kts 112°
2026-04-24 14:07 50.62146 5.11320 26714 ft 393 kts 112°
2026-04-24 14:07 50.61301 5.15394 26301 ft 390 kts 111°
2026-04-24 14:07 50.60744 5.18080 26026 ft 389 kts 111°
2026-04-24 14:07 50.59908 5.22116 25618 ft 386 kts 111°
2026-04-24 14:08 50.59075 5.26124 25214 ft 384 kts 111°
2026-04-24 14:08 50.58247 5.30108 24808 ft 382 kts 111°
2026-04-24 14:08 50.57424 5.34060 24397 ft 379 kts 111°
2026-04-24 14:08 50.56602 5.37995 24008 ft 377 kts 111°
2026-04-24 14:09 50.55784 5.41898 23562 ft 375 kts 111°
2026-04-24 14:09 50.54969 5.45771 23105 ft 372 kts 111°
2026-04-24 14:09 50.54160 5.49615 22663 ft 369 kts 111°
2026-04-24 14:09 50.53355 5.53427 22230 ft 366 kts 111°
2026-04-24 14:10 50.52583 5.57216 21805 ft 364 kts 107°
2026-04-24 14:10 50.52185 5.61135 21383 ft 363 kts 94°
2026-04-24 14:10 50.52288 5.65083 20974 ft 361 kts 83°
2026-04-24 14:10 50.52861 5.68907 20578 ft 359 kts 72°
2026-04-24 14:11 50.53651 5.72614 20172 ft 356 kts 72°
2026-04-24 14:11 50.54432 5.76299 19778 ft 353 kts 72°
2026-04-24 14:11 50.55952 5.83578 19006 ft 348 kts 72°
2026-04-24 14:12 50.56702 5.87178 18620 ft 345 kts 72°
2026-04-24 14:12 50.57451 5.90758 18197 ft 343 kts 72°
2026-04-24 14:12 50.58194 5.94306 17780 ft 340 kts 72°
2026-04-24 14:12 50.58934 5.97837 17333 ft 339 kts 72°
2026-04-24 14:13 50.59668 6.01347 16927 ft 336 kts 72°
2026-04-24 14:13 50.60384 6.04781 16527 ft 334 kts 72°
2026-04-24 14:13 50.61102 6.08250 16090 ft 333 kts 72°
2026-04-24 14:13 50.61816 6.11709 15710 ft 331 kts 72°
2026-04-24 14:14 50.62525 6.15148 15313 ft 329 kts 71°
2026-04-24 14:14 50.63208 6.18579 14911 ft 327 kts 76°
2026-04-24 14:14 50.63423 6.25633 14178 ft 323 kts 95°
2026-04-24 14:15 50.63240 6.29156 13782 ft 321 kts 95°
2026-04-24 14:15 50.63066 6.32652 13415 ft 317 kts 94°
2026-04-24 14:15 50.62895 6.36108 13029 ft 315 kts 94°
2026-04-24 14:15 50.62721 6.39544 12620 ft 314 kts 94°
2026-04-24 14:16 50.62547 6.42950 12286 ft 310 kts 94°
2026-04-24 14:16 50.62374 6.46329 12035 ft 310 kts 94°
2026-04-24 14:16 50.62199 6.49704 11788 ft 309 kts 93°
2026-04-24 14:17 50.61844 6.56397 11284 ft 304 kts 93°
2026-04-24 14:17 50.61666 6.59711 10916 ft 303 kts 92°
2026-04-24 14:17 50.61309 6.66255 10202 ft 300 kts 93°
2026-04-24 14:18 50.61132 6.69517 9818 ft 298 kts 92°
2026-04-24 14:18 50.60957 6.72754 9431 ft 296 kts 92°
2026-04-24 14:18 50.60982 6.75962 9046 ft 292 kts 80°
2026-04-24 14:18 50.61408 6.79061 8657 ft 288 kts 74°
2026-04-24 14:19 50.61884 6.82104 8363 ft 283 kts 73°
2026-04-24 14:19 50.62345 6.85089 8113 ft 279 kts 74°
2026-04-24 14:19 50.62799 6.88047 7878 ft 277 kts 74°
2026-04-24 14:19 50.63250 6.90984 7631 ft 275 kts 73°
2026-04-24 14:20 50.63698 6.93908 7387 ft 274 kts 73°
2026-04-24 14:20 50.64142 6.96820 7129 ft 273 kts 73°
2026-04-24 14:20 50.64582 6.99718 6885 ft 271 kts 73°
2026-04-24 14:20 50.65021 7.02610 6642 ft 270 kts 73°
2026-04-24 14:21 50.65455 7.05477 6299 ft 269 kts 73°
2026-04-24 14:21 50.65888 7.08334 5950 ft 267 kts 73°
2026-04-24 14:21 50.66316 7.11170 5621 ft 265 kts 73°
2026-04-24 14:21 50.66739 7.13987 5314 ft 263 kts 73°
2026-04-24 14:22 50.67152 7.16748 5171 ft 254 kts 73°
2026-04-24 14:22 50.67550 7.19413 5043 ft 245 kts 73°
2026-04-24 14:22 50.68299 7.24441 4777 ft 228 kts 73°
2026-04-24 14:23 50.68653 7.26816 4649 ft 216 kts 73°
2026-04-24 14:23 50.68987 7.29063 4455 ft 206 kts 73°
2026-04-24 14:23 50.69314 7.31238 4169 ft 202 kts 73°
2026-04-24 14:23 50.69709 7.33342 3858 ft 196 kts 57°
2026-04-24 14:24 50.70614 7.34759 3813 ft 180 kts 25°
2026-04-24 14:24 50.71807 7.35196 3753 ft 177 kts 356°
2026-04-24 14:24 50.72966 7.34606 3620 ft 179 kts 326°
2026-04-24 14:24 50.73900 7.33303 3427 ft 179 kts 320°
2026-04-24 14:25 50.74830 7.31975 3185 ft 182 kts 320°
2026-04-24 14:25 50.75761 7.30633 2962 ft 182 kts 318°
2026-04-24 14:25 50.76703 7.29280 2748 ft 186 kts 318°
2026-04-24 14:25 50.77668 7.27901 2472 ft 188 kts 318°
2026-04-24 14:26 50.78637 7.26506 2217 ft 187 kts 317°
2026-04-24 14:26 50.79578 7.25149 2042 ft 177 kts 316°
2026-04-24 14:26 50.80457 7.23884 1753 ft 164 kts 317°
2026-04-24 14:26 50.81258 7.22721 1506 ft 149 kts 317°
2026-04-24 14:27 50.82003 7.21647 1292 ft 139 kts 317°
2026-04-24 14:27 50.82694 7.20651 1090 ft 131 kts 313°
2026-04-24 14:27 50.83360 7.19692 916 ft 130 kts 314°
2026-04-24 14:27 50.84027 7.18729 757 ft 129 kts 312°
2026-04-24 14:28 50.84687 7.17771 580 ft 129 kts 314°
2026-04-24 14:28 50.85343 7.16826 393 ft 124 kts 316°
2026-04-24 14:28 50.85933 7.15970 303 ft 106 kts 317°
2026-04-24 14:28 50.86400 7.15295 284 ft 78 kts 317°
2026-04-24 14:29 50.86778 7.14748 268 ft 75 kts 317°
2026-04-24 14:29 50.87155 7.14202 249 ft 68 kts 318°
2026-04-24 14:29 50.87458 7.13772 241 ft 44 kts 317°
2026-04-24 14:29 50.87689 7.13433 239 ft 48 kts 317°
2026-04-24 14:30 50.87838 7.13210 239 ft 35 kts 317°
2026-04-24 14:30 50.88007 7.12896 239 ft 28 kts 281°
2026-04-24 14:30 50.87981 7.12677 233 ft 21 kts 255°
2026-04-24 14:30 50.88010 7.12547 232 ft 14 kts 304°
2026-04-24 14:31 50.88060 7.12407 232 ft 10 kts 296°
2026-04-24 14:31 50.88024 7.12339 232 ft 10 kts 214°
2026-04-24 14:31 50.87977 7.12298 232 ft 6 kts 179°
2026-04-24 14:31 50.87938 7.12304 232 ft 2 kts 175°
2026-04-24 14:32 50.87932 7.12305 232 ft 0 kts 175°